Retour au catalogue

STARLINK-35934

ActifCommunicationsSSO
NORAD 67542·PAYLOAD·🇺🇸 United States

Lancé Jan 22, 2026 depuis Vandenberg Space Force Base

Loading…

Prochains Passages (prochaines 24 heures)

TLE

FraisSource: CelesTrak SupGP

Époque: Sep 14, 2026, 14:42 UTC

1 67542C 26014L   26257.61298611  .00010028  00000+0  31127-3 0  2577
2 67542  97.2845 143.1317 0001742  86.1161 162.0914 15.33435511    13

Suivez STARLINK-35934 en temps réel avec AllMySat

Download on the App Store